Location: Esp�n
(42.4593°N, 0.2047°W)
Time: 17:59:42
(UTC+00:00)

ISS - Pass Details

Date: 02 August 2021
Orbit: 417 x 422 km, 51.6° (Epoch: 28 September)

Event Time Altitude Azimuth Distance (km) Brightness Sun altitude
Rises 21:07:23 0° 286° (WNW) 2,388 1.2 -17.1°
Reaches altitude 10° 21:10:41 10° 252° (WSW) 1,508 -0.6 -17.6°
Maximum altitude 21:11:53 12° 231° (SW) 1,413 -1.0 -17.7°
Enters shadow 21:12:51 11° 214° (SW) 1,467 -1.1 -17.9°
